sat.trackr.live / text

‹ back to catalog

STARLINK-30290

NORAD 57858 · 2023-141U

PAYLOAD ACTIVE UNKNOWN

§ Identity

Operator
Country
US
Launch date
2023-09-12
Launch site
AFWTR
Launch vehicle
Mass (kg)
RCS (m²)

Purposes: comms

External: N2YO · Heavens-Above · Gunter

§ Orbital elements

Epoch: 2026-09-20T22:11:56.596704Z

Period
93.85 min
Inclination
53.1607°
Eccentricity
0.0001057
Mean motion
15.34389896 rev/d
Perigee alt
462.0 km
Apogee alt
463.5 km
Semi-major
6,840.9 km
B*
1.9443e-5
RAAN
95.5564°
Arg perigee
74.8760°
Mean anomaly
285.2359°
Rev number
17,024

§ Raw data

STARLINK-302901 57858U 23141U   26263.92496061  .00000281  00000+0  19443-4 0  99952 57858  53.1607  95.5564 0001057  74.8760 285.2359 15.34389896170240

JSON: /api/v1/satellites/57858 · /tle

For live sub-satellite position, see the globe view (requires WebGL).

§ Visibility from observer

Set your observer location to see the next 7 days of passes ≥ 10°. The values pass through the URL so the page stays shareable.

No JS? Fill the form by hand. The geolocation button needs JavaScript.